McMurdo%20Station (Antarctica)  www.meteorete.it

situazione meteo Attuale :14:18:40
Temperatura : -32.6
Umidita :58.0 %
Pressione :992.0 hPa
Vel vento :2.6 Km
Direz. :SE
Precip.(mm.):0.0
   

Condizioni Meteo per: McMurdo Station, Antarctica

aggiornamento precedente: 24.06.2017 19:32
prossimo aggiornamento: 25.06.2017 08:00
Latitude: 77.85° S
Longitude: 166.68° E
Altitude: -6 m

hPa
mm °C
    Temperatura Precipitazioni Pressione vento Umidità Nuvoloso Nebbia
Keskiyön aurinko OGGI
15:00   992.0 hPa 2.6 m/s 58% 27%
17:00   991.9 hPa 2.3 m/s 54% 88%
19:00   991.6 hPa 2.7 m/s 57% 88%
21:00   991.2 hPa 3.9 m/s 56% 79%
23:00   990.4 hPa 5.9 m/s 57% 85%
Keskiyön aurinko DOMANI
01:00   989.1 hPa 6.6 m/s 59% 92%
03:00   987.6 hPa 6.6 m/s 62% 93%
05:00   986.2 hPa 4.7 m/s 64% 94%
07:00   984.8 hPa 4.6 m/s 66% 88%
09:00   984.0 hPa 4.1 m/s 70% 73%
11:00   983.5 hPa 3.8 m/s 71% 69%
13:00   983.2 hPa 3.9 m/s 68% 39%
15:00   983.0 hPa 4.1 m/s 68% 25%
17:00   983.4 hPa 4.1 m/s 72% 23%
19:00   983.6 hPa 3.8 m/s 68% 22%
21:00   984.8 hPa 4.0 m/s 66% 22%
23:00   986.3 hPa 4.1 m/s 67% 24%
Keskiyön aurinko Martedi 27.06.2017
01:00   987.5 hPa 5.3 m/s 70% 34%
03:00   988.6 hPa 5.3 m/s 73% 65%
05:00   989.4 hPa 5.0 m/s 71% 81%
07:00   990.0 hPa 5.0 m/s 69% 75%
09:00   990.9 hPa 4.7 m/s 62% 44%
11:00   991.8 hPa 4.5 m/s 59% 30%
13:00   992.2 hPa 4.4 m/s 57% 28%
15:00   992.3 hPa 4.0 m/s 59% 23%
17:00   992.0 hPa 3.6 m/s 59% 22%
19:00   992.0 hPa 3.4 m/s 52% 22%
21:00   992.2 hPa 2.5 m/s 47% 22%
23:00   992.2 hPa 1.9 m/s 43% 24%
Keskiyön aurinko Mercoledi 28.06.2017
01:00   992.4 hPa 4.2 m/s 56% 25%
03:00   992.9 hPa 4.8 m/s 56% 22%
05:00   993.3 hPa 4.7 m/s 50% 22%
12:00   995.8 hPa 4.7 m/s 49% 22%
18:00   997.0 hPa 3.9 m/s 46% 22%
Keskiyön aurinko Giovedi 29.06.2017
00:00   997.9 hPa 4.2 m/s 43% 41%
06:00   998.8 hPa 4.8 m/s 45% 80%
12:00   1000.5 hPa 3.4 m/s 47% 74%
18:00   1001.8 hPa 3.6 m/s 67% 47%
Keskiyön aurinko Venerdi 30.06.2017
00:00   1003.8 hPa 3.0 m/s 71% 34%
06:00   1003.7 hPa 3.3 m/s 67% 58%
12:00   1003.5 hPa 3.6 m/s 71% 67%
18:00   1002.5 hPa 3.0 m/s 76% 71%
Keskiyön aurinko Sabato 01.07.2017
00:00   1001.9 hPa 3.2 m/s 64% 72%
06:00   999.7 hPa 2.9 m/s 72% 85%
12:00   1001.2 hPa 5.8 m/s 74% 98%
18:00   1001.9 hPa 5.2 m/s 70% 23%
Keskiyön aurinko Domenica 02.07.2017
00:00   1002.1 hPa 4.9 m/s 67% 62%
06:00   1001.1 hPa 5.3 m/s 55% 32%
12:00   999.8 hPa 3.1 m/s 42% 22%
18:00   996.9 hPa 2.7 m/s 36% 22%
Keskiyön aurinko Lunedi 03.07.2017
00:00   994.7 hPa 4.3 m/s 48% 77%
06:00   991.6 hPa 2.8 m/s 43% 59%
12:00   989.2 hPa 4.3 m/s 45% 61%
18:00   990.1 hPa 4.7 m/s 45% 24%
Keskiyön aurinko Martedi 04.07.2017
00:00   990.2 hPa 3.0 m/s 29% 22%
06:00   988.3 hPa 0.8 m/s 33% 97%
12:00   988.6 hPa 4.8 m/s 53% 95%
18:00   990.3 hPa 6.1 m/s 55% 1%
Keskiyön aurinko Mercoledi 05.07.2017
00:00   989.3 hPa 5.3 m/s 61% 22%